Regional Weather Roundup
Issued by NWS

Home | Current Version | Previous Version | Text Only | Print | Product List | Glossary Off
Versions: 1 2 3 4 5 6 7 8 9 10 11 12 13 14 15 16 17 18 19 20 21 22 23 24 25 26 27 28 29 30 31 32 33 34 35 36 37 38 39 40 41 42 43 44 45 46 47 48 49 50

000
ASUS43 KFSD 190502
RWRSD

WEATHER ROUNDUP FOR SOUTH DAKOTA
NATIONAL WEATHER SERVICE SIOUX FALLS SD
1200 AM CDT TUE SEP 19 2017

NOTE: "FAIR" INDICATES FEW OR NO CLOUDS BELOW 12,000 FEET WITH NO
SIGNIFICANT WEATHER AND/OR OBSTRUCTIONS TO VISIBILITY.


SDZ001>005-009-010-012>017-190600-
NORTHWEST AND NORTH CENTRAL SOUTH DAKOTA

CITY           SKY/WX    TMP DP  RH WIND       PRES   REMARKS
BUFFALO          N/A     63  45  51 E13       29.59F
MOBRIDGE       CLEAR     62  47  57 E15       29.71F
$$

SDZ012>016-024>037-041>051-057-063-072>074-190600-
SOUTHWEST AND SOUTH CENTRAL SOUTH DAKOTA

CITY           SKY/WX    TMP DP  RH WIND       PRES   REMARKS
RAPID CTY ARPT NOT AVBL
PIERRE         CLOUDY    65  58  78 SE13      29.71F
CUSTER         CLOUDY    58  31  35 S5        29.81F
ELLSWORTH AFB  CLOUDY    62  38  41 S9        29.68F
PHILIP         MOCLDY    60  52  74 E6        29.70F
PINE RIDGE     PTCLDY    71  43  36 S21G30    29.74F
SPEARFISH      FAIR      70  34  26 S17       29.67F
WINNER         FAIR      68  61  78 S13       29.76F
$$

SDZ004>011-016>023-039-040-190600-
NORTHEAST SOUTH DAKOTA

CITY           SKY/WX    TMP DP  RH WIND       PRES   REMARKS
ABERDEEN       CLEAR     60  58  92 SE8       29.79S
WATERTOWN      MOCLDY    61  60  97 SE8       29.84S
BROOKINGS      MOCLDY    63  62  97 S14       29.86S
SISSETON         N/A     61  61 100 SE13      29.83S
$$

SDZ017-020-022-023-036>040-048>070-190600-
SOUTHEAST SOUTH DAKOTA

CITY           SKY/WX    TMP DP  RH WIND       PRES   REMARKS
SIOUX FALLS    MOCLDY    68  66  93 S12       29.86F
HURON          CLEAR     65  62  90 SE10      29.79S
MITCHELL       CLEAR     66  63  90 S10       29.81F
YANKTON        PTCLDY    66  64  93 SE12      29.85F
$$

ABBREVIATIONS USED IN REMARKS
   TC - TEMPERATURE IN CELSIUS
  WCI - WIND CHILL INDEX
   HX - HEAT INDEX
  VSB - VISIBILITY





USA.gov is the U.S. government's official web portal to all federal, state and local government web resources and services.